Regional Weather Roundup
Issued by NWS Pendleton, OR

Home | Current Version | Previous Version | Text Only | Print | Product List | Glossary On
Versions: 1 2 3 4 5 6 7 8 9 10 11 12 13 14 15 16 17 18 19 20 21 22 23 24 25 26 27 28 29 30 31 32 33 34 35 36 37 38 39 40 41 42 43 44 45 46 47 48 49 50
000
ASUS46 KPDT 202225
RWRPDT
PENDLETON REGIONAL WEATHER ROUNDUP
NATIONAL WEATHER SERVICE PENDLETON OREGON
300 PM PDT SAT SEP 20 2014

NOTE: FAIR INDICATES FEW OR NO CLOUDS BELOW 12,000 FEET WITH NO
SIGNIFICANT WEATHER AND/OR OBSTRUCTIONS TO VISIBILITY.

# INDICATES UNOFFICIAL STATION AND DATA

WAZ520-202310-
EAST SLOPES OF WASHINGTON CASCADES

CITY            SKY/WX      TMP DP  RH  WIND    PRES   REMARKS
#BUMPING DAM    N/A         75  N/A N/A CALM    N/A
#CLE ELUM HS    N/A         79  47  32  SE7     30.03F
#CLE ELUM 2NW   N/A         78  45  31  E5      N/A
#CLE ELUM LAKE  N/A         77  50  39  SE5     29.99F
#CLIFFDEL 2NW   N/A         82  48  31  S2      N/A
#GLENWOOD       N/A         84  53  34  CALM    29.97F
#MANASTASH CYN  N/A         77  50  39  N3      30.10F
#NELSON         N/A         82  52  35  CALM    30.00F
#NELSON 3SW     N/A         77  49  37  E2      30.19F
#NILE           N/A         80  50  35  NE3     29.29F
#RONALD 2NW     N/A         77  51  40  SE2     29.97F
#SNOWDEN        N/A         80  35  20  E5      N/A
#TEANAWAY 4NE   N/A         81  55  41  CALM    N/A
#TROUT LAKE 1NE N/A         81  53  38  E7      29.96F
$$

WAZ521-202310-
SIMCOE HIGHLANDS

CITY            SKY/WX      TMP DP  RH  WIND    PRES   REMARKS
#BICKLETON HS   N/A         74  40  29  NE6     30.18F
#CENTERVILLE 4W N/A         82  50  33  SE9     29.79F
#CENTERVILLE 1SWN/A         82  52  35  E10     29.93F
#GOLDENDALE     N/A         82  49  32  E10     N/A
#GOLDENDALE 1NE N/A         84  39  20  NE8     N/A
#GOLDENDALE 1S  N/A         85  53  33  E9      30.00F
#GOLDENDALE 5WNWN/A         84  51  32  E8      29.93
#GOODNOE HILLS  N/A         87  49  27  E16     29.94F
#LYLE 6NE       N/A         82  48  31  E9      29.92F
$$

WAZ026-202310-
KITTITAS VALLEY

CITY            SKY/WX      TMP DP  RH  WIND    PRES   REMARKS
ELLENSBURG AP   SUNNY       86  49  28  VRB5    30.07F
#ELLENSBURG CWU N/A         81  50  34  E10     29.97F
#ELLENSBURG 3NE N/A         80  53  39  S3      30.06F
#ELLENSBURG     N/A         85  52  32  E7      N/A
#KITTITAS 3S    N/A         80  54  41  E7      30.00F
#THORP 6N       N/A         79  51  38  S7      30.04F
$$

WAZ027-202310-
YAKIMA VALLEY

CITY            SKY/WX      TMP DP  RH  WIND    PRES   REMARKS
SUNNYSIDE AP    CLOUDY      82  54  38  CALM    30.02F
YAKIMA AIRPORT  SUNNY       86  50  29  CALM    30.04F
YAKIMA-VAGABOND SUNNY       84  46  27  E13     30.05F
#COWICHE 1N     N/A         80  55  42  CALM    30.23F
#DONALD 2NE     N/A         95  41  16  CALM    30.35F HX 91
#GRANDVIEW      N/A         82  53  37  CALM    30.00F
#MABTON         N/A         82  57  43  CALM    30.02F
#MOXEE 2E       N/A         84  30  14  S7      29.92F
#NACHES 2SW     N/A         83  57  41  S1      30.16S
#OUTLOOK DOT    N/A         N/A N/A N/A S5      N/A
#SELAH 8E       N/A         82  47  29  E7      N/A
#TERRACE HTS    N/A         85  53  33  SW2     29.96F
#TOPPENISH      N/A         82  55  40  CALM    29.91F
#WAPATO 4NE     N/A         95  41  16  CALM    30.35F HX 91
#WEST VALLEY    N/A         82  51  34  CALM    29.98F
#W YAKIMA       N/A         83  52  34  W1      29.99F
#WHITE SWAN 5E  N/A         83  54  37  N1      30.00F
#WILEY CITY 3W  N/A         83  46  27  N1      30.04F
$$

WAZ028-202310-
LOWER COLUMBIA BASIN...WASHINGTON

CITY            SKY/WX      TMP DP  RH  WIND    PRES   REMARKS
HANFORD         SUNNY       86  46  25  N7      30.04F
PASCO           SUNNY       87  57  36  NW12    29.99F
PROSSER AWOS    N/A         86  52  31  N7      30.03F
RICHLAND AWOS   SUNNY       88  45  23  N9      30.00F
#BASIN CITY 5SW N/A         86  58  39  N6      30.01F
#BENTON CITY    N/A         83  51  33  NE7     29.89F
#CONNELL 5N     N/A         87  46  24  N3      29.98F
#CONNELL 5NW    N/A         87  47  25  N3      29.95F
#ELTOPIA        N/A         86  57  37  W8      29.93F
#ELTOPIA 6NW    N/A         87  55  34  NW9     28.98F
#KENNEWICK 3S   N/A         85  55  36  CALM    29.98F
#PASCO-BROADMOORN/A         90  54  30  E2      29.86F HX 88
#PATERSON       N/A         84  53  34  NE10    29.95F
#PROSSER        N/A         85  47  27  N3      29.98F
#SAGEMOOR 2W    N/A         80  60  51  NW1     29.83F
#TOUCHET 2S     N/A         84  57  40  W3      29.95F
#WEST PASCO     N/A         87  55  34  N5      29.98F
$$

WAZ029-202310-
FOOTHILLS OF THE BLUES...WASHINGTON

CITY            SKY/WX      TMP DP  RH  WIND    PRES   REMARKS
WALLA WALLA AP  SUNNY       83  49  31  VRB3    30.02F
#DAYTON SCHOOL  N/A         85  43  23  VRB6    30.01F
#LOWDEN 2SE     N/A         84  57  40  W7      29.94F
#PLEASANT VIEW 1N/A         85  42  22  NE3     30.01F
#PRESCOTT       N/A         90  48  24  NE7     29.94F HX 87
#SUDBURY        N/A         89  N/A N/A W5      N/A
#WHITMAN COLLEGEN/A         83  54  37  S2      30.00F
#WAITSBURG 8N   N/A         88  36  16  N8      29.91F
#WALLA WALLA 5E N/A         83  52  34  W7      N/A
#WALLA WALLA U  N/A         82  54  38  SW2     29.96F
#WHITMAN MISSIONN/A         84  56  38  S3      29.97F
$$

WAZ030-202310-
BLUE MOUNTAINS...WASHINGTON

CITY            SKY/WX      TMP DP  RH  WIND    PRES   REMARKS
$$

ORZ009-041-WAZ024-202310-
COLUMBIA RIVER GORGE

CITY            SKY/WX      TMP DP  RH  WIND    PRES   REMARKS
HOOD RIVER AP   SUNNY       86  48  27  E8      29.98F
THE DALLES AP   SUNNY       91  47  22  E14     29.95F HX 88
#ARLINGTON AIRPON/A         85  50  30  NE14    29.94S
#ARLINGTON HS   N/A         86  49  28  SW2     29.87F
#MARYHILL 2W    N/A         89  54  31  CALM    N/A
#MOSIER 1S      N/A         87  40  19  CALM    29.97F
#MURDOCK        N/A         88  52  29  SE6     29.95F
#RUFUS DOT      N/A         86  57  37  S8      N/A

$$

ORZ510-202310-
NORTH CENTRAL OREGON

CITY            SKY/WX      TMP DP  RH  WIND    PRES   REMARKS
#CHENOWITH 1W   N/A         82  46  28  E12     N/A
#COW CYN RST AREN/A         81  45  28  N6      N/A
#DUFUR 9E       N/A         77  47  35  SE15G26 30.00F
#GRASS VALLEY   N/A         78  46  32  N6      N/A
#GRASS VALLEY 1SN/A         79  50  36  E7      29.98F
#KENT DOT       N/A         79  44  29  NE15    N/A
#MAUPIN SCHOOL  N/A         86  53  32  E7      28.85F
#MORO SCHOOL    N/A         79  55  44  E8      30.04F
#SHANIKO 5WSW   N/A         76  44  32  NE10    N/A
#SHANIKO 4NW    N/A         78  43  29  NE13    30.10F
#TYGH VALLEY 2NEN/A         85  50  30  E9      29.94F
#WAPANITIA AIRPON/A         82  49  32  E8      29.96F
#WASCO DOT      N/A         85  50  30  E16     N/A
#WASCO 5NE      N/A         83  51  33  E8      29.97F
$$

ORZ511-202310-
CENTRAL OREGON

CITY            SKY/WX      TMP DP  RH  WIND    PRES   REMARKS
BEND AIRPORT    SUNNY       81  46  29  N8      30.06F
MADRAS AIRPORT  SUNNY       82  45  27  N6      30.05F
REDMOND AIRPORT SUNNY       83  46  27  NW12    30.03F
#BEND 6E        N/A         79  42  27  CALM    29.83F
#BEND 1SW       N/A         78  48  35  E1      N/A
#BEND-AWBREY    N/A         80  49  34  SE5     29.91F
#BEND-KIM LN    N/A         80  51  36  N1      30.03F
#CROOKED RVR RANN/A         80  50  35  E10     29.92F
#CULVER         N/A         81  48  32  N2      30.00F
#LAKE BILLY CHINN/A         82   0   4  N10     30.05F
#POWELL BUTTE 3EN/A         79  51  38  NW7     N/A
#POWELL BUTTE   N/A         83  52  34  N3      29.69F
#PRINEVILLE 3N  N/A         83  54  37  CALM    29.86F
#WARM SPRINGS   N/A         87  53  31  CALM    29.96F


ORZ509-202310-
EAST SLOPES OF OREGON CASCADES

CITY            SKY/WX      TMP DP  RH  WIND    PRES   REMARKS
#BLUE BOX PASS  N/A         78  20  11  S1      N/A
#CAMP SHERMAN   N/A         84  44  25  CALM    29.93S
#LA PINE DOT    N/A         83  36  19  NE3     N/A
#LA PINE 4NW    N/A         80  50  35  CALM    29.95F
#LAVA BUTTE DOT N/A         81  44  27  CALM    N/A
#SISTERS AIRPOR N/A         79  56  45  NE6     29.91S
#SISTERS ODOT   N/A         80  N/A N/A W2      N/A
#SISTERS 3N     N/A         79  48  34  E5      N/A
#SUNRIVER       N/A         81  48  32  N2      29.82F
#SUNRIVER AP    N/A         82  49  32  N5      29.88F
#SUTTLE LK DOT  N/A         73  48  41  E22G29  N/A
#TUMALO 3W      N/A         79  47  32  E5      29.80F
#WANOGA BUTTE D N/A         70  43  38  NE8     N/A

$$

ORZ044-202310-
LOWER COLUMBIA BASIN...OREGON

CITY            SKY/WX      TMP DP  RH  WIND    PRES   REMARKS
HERMISTON       SUNNY       89  49  25  NE12    29.99F
#BOARDMAN SCHOOLN/A         86  49  28  NE5     29.96F
#BOARDMAN 3W    N/A         85  56  37  NE7     29.65F
#BOARDMAN 8SW   N/A         86  54  34  N9      29.96F
#ECHO 8SW       N/A         85  50  30  E1      29.98F
#IONE SCHOOL    N/A         81  51  35  E7      30.00F
#IRRIGON 4NW    N/A         88  52  29  N5      N/A
#UMATILLA       N/A         89  52  28  N6      29.95F
$$

ORZ507-202310-
NORTHERN FOOTHILLS OF THE BLUES

CITY            SKY/WX      TMP DP  RH  WIND    PRES   REMARKS
PENDLETON AIRPT SUNNY       85  44  24  NE9     30.02F
#ADAMS 3WNW     N/A         83  48  30  NE8     29.96F
#ATHENA         N/A         80  50  35  N3      30.00F
#HELIX SCHOOL   N/A         81  49  33  N7      29.97F
#HELIX 3N       N/A         80  48  33  N13     30.01F
#HELIX 6SW      N/A         83  48  30  NE8     30.01
#HOLDMAN 5SE    N/A         84  49  30  N2      30.02F
#HOLDMAN 6E     N/A         83  48  30  SW7     29.79F
#M-F GROVE ELEM N/A         80  47  31  N1      30.00F
#M-FREEWATER 5SEN/A         82  59  46  CALM    30.01F
#PENDLETON DNTN N/A         87  47  25  E2      29.99F
#PDT AQUATIC CTRN/A         85  52  32  N5      30.00F
#PENDLETON 5NE  N/A         85  52  32  NE3     29.97F
#PDT SUNRIDGE   N/A         86  50  29  NW3     30.01F
#PENDLETON 7NW  N/A         82  53  37  NE7     N/A
#PILOT ROCK     N/A         81  47  30  CALM    30.04F
#TUTUILLA       N/A         84  48  29  E7      29.99F
#UMAPINE 2E     N/A         84  58  41  W1      29.96F
#WESTON SCHOOL  N/A         78  46  32  NE6     29.99F

$$

ORZ508-202310-
SOUTHERN FOOTHILLS OF THE BLUES

CITY            SKY/WX      TMP DP  RH  WIND    PRES   REMARKS
LEXINGTON       SUNNY       82  48  31  N13     30.04F
#AJAX           N/A         79  45  30  E14     29.99F
#CONDON SCHOOL  N/A         77  49  37  CALM    30.03F
#CONDON 5W      N/A         73  43  34  NE13    30.08F
#FOSSIL SCHOOL  N/A         81  49  33  NE16G25 30.02F
#HEPPNER EOC    N/A         80  49  34  N7      29.92F
#HEPPNER 4NE    N/A         75  50  41  N6      29.98F
#LEXINGTON 2SE  N/A         83  51  33  N12     29.99F
#MIKKALO        N/A         82  47  29  N6      30.04F
#OLEX 4N        N/A         80  51  36  E13     30.01F
#RUGGS 5NE      N/A         81  48  32  NE8     30.27S
#RUGGS 2SW      N/A         77  49  37  N8      29.97F

$$

ORZ502-503-202310-
BLUE MOUNTAINS

CITY            SKY/WX      TMP DP  RH  WIND    PRES   REMARKS
MEACHAM         SUNNY       78  44  30  VRB5    30.13F
#BATTLE MTN DOT N/A         72  55  55  N3      N/A
#HARDMAN 10S    N/A         77  47  35  N6      30.17F
#HEPPNER 15SE   N/A         77  50  39  CALM    30.06F
#LADD CYN SMT   N/A         79  42  27  N5      N/A
#LADD CREEK ODOTN/A         79  52  39  NE6     N/A
#N POWDER DOT   N/A         84  51  32  NW1     N/A
#PIKES PEAK     N/A         73  48  41  N6      27.99S
#TOLLGATE       N/A         73  41  31  NE1     30.10F
#TOLLGATE 9W    N/A         74  43  33  NW6     N/A
#TROY SCHOOL    N/A         87  47  25  N1      29.80F
#UKIAH          N/A         79  47  32  N12     30.02F
#WESTON 4E      N/A         75  48  38  NW2     29.91F
$$

ORZ505-202310-
JOHN DAY BASIN

CITY            SKY/WX      TMP DP  RH  WIND    PRES   REMARKS
JOHN DAY        SUNNY       87  41  20  N3      30.07F
#JOHN DAY KJDY  N/A         82  42  24  CALM    30.12R
#MONUMENT HS    N/A         87  42  21  SE1     29.99F
#MT. VERNON 5SE N/A         81  45  28  W1      30.04F
#WINLOCK        N/A         82  48  31  CALM    30.13F
$$

ORZ506-202310-
OCHOCO AND JOHN DAY HIGHLANDS

CITY            SKY/WX      TMP DP  RH  WIND    PRES   REMARKS
#BUCK CREEK DOT N/A         85  47  27  E7      N/A
#HORSE RIDGE DO N/A         82  42  24  NW8     N/A
#KEYES SMT DOT  N/A         80  42  26  W7      N/A
#PAULINA SCHOOL N/A         87  42  21  CALM    30.05F
#PINE MTN OBS   N/A         73  37  27  S9      N/A
#PRAIRIE CITY   N/A         89  49  25  NW2     29.79F
#SENECA 9NW     N/A         83  40  22  CALM    29.95F
$$

ORZ049-202310-
GRANDE RONDE VALLEY

CITY            SKY/WX      TMP DP  RH  WIND    PRES   REMARKS
LA GRANDE       SUNNY       82  43  25  CALM    30.05F
#COVE           N/A         81  49  33  CALM    29.98F
#COVE SCHOOL    N/A         82  47  29  CALM    30.05
#COVE 6NW       N/A         80  46  30  CALM    30.03F
#ELGIN 3N       N/A         84  38  19  S5      29.78F
#ELGIN 1E       N/A         86  46  25  CALM    N/A
#IMBLER SCHOOL  N/A         81  45  28  NW3     30.01F
#LADD CYN DOT   N/A         82  51  34  N2      N/A
#LA GRANDE ELEM N/A         81  45  28  E2      30.04F
#UNION 1S       N/A         80  49  34  NW1     29.89F
$$

ORZ050-202310-
WALLOWA COUNTY

CITY            SKY/WX      TMP DP  RH  WIND    PRES   REMARKS
JOSEPH AIRPORT  SUNNY       81  34  18  NW3     30.15F
#ENTERPRISE AP  N/A         81  36  20  SW2     30.05F
#ENTERPRISE HS  N/A         81  46  29  NW2     30.08F
#IMNAHA SCHOOL  N/A         85  41  21  VRB7    29.91F
#IMNAHA 10S     N/A         83  46  27  NE6     30.05F
#JOSEPH 3N      N/A         78  45  31  SW5     30.13F
#JOSEPH 3W      N/A         78  33  19  CALM    30.00F
#LOSTINE        N/A         84  40  21  CALM    29.79
#MT HOWARD 8000 N/A         61  39  44  E2      30.39F
#PROMISE 1S     N/A         77  48  36  NW6     30.09F
#SHEEP RDG 7000 N/A         62  35  36  CALM    30.04F
#WALLOWA SCHOOL N/A         83  42  24  CALM    30.89F



$$



USA.gov is the U.S. government's official web portal to all federal, state and local government web resources and services.